Index of /wp-content/HCSSDocuments/HCSSPOLICIES

 NameLast modifiedSizeDescription

 Parent Directory   -  
 ADM-1-10 Mission St..>2014-05-24 12:48 28K 
 ADM-1-20 Goals.doc 2014-05-23 15:27 70K 
 ADM-1-30 Philosophy..>2014-05-23 15:27 74K 
 ADM-1-40 By-Laws.doc 2014-05-23 15:27 186K 
 ADM-1-60 Policies In..>2015-02-12 10:10 383K 
 ADM-2-20 Organizatio..>2014-09-17 12:07 86K 
 ADM-2-30 Map of Serv..>2014-05-23 15:31 516K 
 ADM-2-40 Management..>2014-05-23 15:31 76K 
 ADM-2-50 Office Vol..>2014-05-23 15:31 81K 
 ADM-2-90 CQI Terms ..>2014-05-23 15:31 100K 
 ADM - 2 - TRANSPORTA..>2014-05-23 15:31 85K 
 ADM-3-10 Executive D..>2014-05-23 15:32 82K 
 ADM-3-30 Programs D..>2014-05-23 15:32 77K 
 ADM-3-40 Financial ..>2014-05-23 15:32 79K 
 ADM-3-50 PayrollAcc..>2014-05-23 15:32 76K 
 ADM-3-50 Payroll Hum..>2014-05-23 15:32 77K 
 ADM-3-60 Scheduler ..>2014-05-23 15:32 80K 
 ADM-3-70 Administra..>2014-05-23 15:32 80K 
 ADM-3-110 Program As..>2014-05-23 15:32 30K 
 ADM-3-120 Day Away R..>2014-05-23 15:32 79K 
 ADM-3-140 Adm Phone..>2014-05-23 15:32 41K 
 ADM-3-150 Dining Cl..>2014-05-23 15:32 40K 
 ADM-3-160 Team Leade..>2014-05-23 15:32 34K 
 ADM-3-170 Family and..>2014-05-23 15:32 32K 
 ADM-3-180 Program an..>2014-05-23 15:32 31K 
 ADM-3-190 Team Clerk..>2014-05-23 15:32 32K 
 ADM-3-200 Board Adm..>2014-11-11 09:07 34K 
 ADM-3-210 Housekeepe..>2014-05-23 15:32 91K 
 ADM-3-220 Privacy O..>2014-05-23 15:32 36K 
 ADM-3-240 Director o..>2014-05-23 15:32 85K 
 ADM-3-260 Scheduled ..>2014-05-23 15:32 83K 
 ADM-3-270 Van Driver..>2014-09-16 10:54 102K 
 ADM-3-280 Transporta..>2014-05-23 15:32 97K 
 ADM-3-290 In-House S..>2014-05-23 15:32 104K 
 ADM-3-300 Relief Tea..>2014-05-23 15:32 104K 
 ADM-3-310 General Ac..>2014-05-23 15:32 84K 
 ADM-3-330 CSS Assess..>2014-05-23 15:32 99K 
 ADM-3-330 Volunteer ..>2014-05-23 15:32 77K 
 ADM-3-340 Accounts P..>2014-05-23 15:32 78K 
 ADM-3-350 BSO Overni..>2014-05-23 15:32 32K 
 ADM-3- Relief Team C..>2014-05-23 15:32 94K 
 ADM-4-10 Accounts R..>2014-05-23 15:33 93K 
 ADM-4-20 Overdue Acc..>2014-05-23 15:33 76K 
 ADM-4-40 Accounts P..>2014-05-23 15:33 79K 
 ADM-4-50 GST Submis..>2014-05-23 15:33 74K 
 ADM-4-60 Cashflow S..>2014-05-23 15:33 74K 
 ADM-4-70 Refund of ..>2014-05-23 15:33 96K 
 ADM-5-10 Client Fee..>2015-03-24 14:28 75K 
 ADM-5-20 Fee Reducti..>2014-11-06 15:10 41K 
 ADM-5-30 Petty Cash..>2014-05-23 17:39 72K 
 ADM-5-40 Purchase S..>2014-05-23 17:39 72K 
 ADM-5-50 Selection ..>2014-05-23 17:39 75K 
 ADM-5-60 Gift Certi..>2014-05-23 17:39 74K 
 ADM-5-70 Donations.doc2014-05-23 17:39 82K 
 ADM-5-90 Receiving ..>2014-05-23 17:39 97K 
 ADM-5-110 Signing A..>2014-05-23 17:39 73K 
 ADM-5-120 Audits.doc 2014-05-23 17:39 84K 
 ADM-5-130 Inventory..>2014-05-23 17:39 76K 
 ADM- 5-140 Authoriza..>2014-05-23 17:39 71K 
 ADM-5-170 Payroll.doc 2014-05-23 17:39 78K 
 ADM-5-180 SaleDonati..>2014-05-23 15:33 79K 
 ADM-5-190 Establish..>2014-05-23 17:39 74K 
 ADM-5-200 Credit Ca..>2014-05-23 17:39 39K 
 ADM-5-210 Key Conrol..>2014-05-23 17:39 75K 
 ADM-5-220 Fee Reduct..>2014-05-23 17:39 104K 
 ADM-5-230 Pre-Author..>2014-05-23 17:39 100K 
 ADM-6-10 Continuous..>2014-05-23 17:38 101K 
 ADM-6-20 Program Ev..>2014-05-23 17:38 76K 
 ADM-6-30 Collection..>2014-05-23 17:38 74K 
 ADM-6-40 Developmen..>2014-05-23 17:38 76K 
 ADM-6-50 Incident R..>2014-05-23 17:38 77K 
 ADM-6-60 Complaints..>2014-05-23 17:38 80K 
 ADM-6-70 Policy Dev..>2014-05-23 17:38 76K 
 ADM-6-80 Special Pr..>2014-05-23 17:38 79K 
 ADM-6-90 Evaluate H..>2014-05-23 17:38 76K 
 ADM-7-10 Client Info..>2014-05-23 18:24 100K 
 ADM-7-20 Access and..>2014-05-23 18:24 99K 
 ADM-7-30 Client Co..>2014-05-23 18:24 42K 
 ADM-7-40 PHIPA Refer..>2014-05-23 18:24 2.0M 
 ADM-7-50 Transportin..>2014-05-23 18:24 94K 
 ADm-5-100 Income Ta..>2014-05-23 17:39 95K 
 ALC Day Away Transit..>2014-05-23 18:58 120K 
 BRD-1-10 Mission St..>2014-05-23 18:25 73K 
 BRD-1-20 Goals.doc 2014-05-23 18:25 74K 
 BRD-1-30 Statement o..>2014-05-23 18:25 74K 
 BRD-1-60 Purpose of ..>2015-02-26 14:55 69K 
 BRD-1-70 Map of Serv..>2014-05-23 18:25 516K 
 BRD-1-80 Map of Loca..>2014-05-23 18:25 483K 
 BRD-2-10 General Fun..>2014-05-23 18:25 74K 
 BRD-2-20 List of Boa..>2014-05-23 18:25 87K 
 BRD-2-30 Board vs E..>2014-05-23 18:25 49K 
 BRD-2-40 Executive D..>2014-05-23 18:25 80K 
 BRD-2-50 Conflict of..>2014-05-23 18:25 80K 
 BRD-2-60 Policy Awa..>2014-05-23 18:25 75K 
 BRD-2-70 Spokespers..>2014-05-23 18:25 75K 
 BRD-2-80 General Com..>2014-05-23 18:25 79K 
 BRD-2-90 Travel & M..>2014-05-23 18:25 89K 
 BRD-2-100 Vehicle A..>2014-05-23 18:25 79K 
 BRD-2-110 Volunteer..>2014-05-23 18:25 103K 
 BRD-2-120 Applicati..>2014-05-23 18:25 80K 
 BRD-2-130 Police Ch..>2014-05-23 18:25 35K 
 BRD-2-140 Insurance..>2014-05-23 18:25 75K 
 BRD-2-150 Orientati..>2014-05-23 18:25 78K 
 BRD-2-160 Training.doc2014-05-23 18:25 79K 
 BRD-2-170 Recogniti..>2014-05-23 18:25 75K 
 BRD-2-180 Code of C..>2014-05-23 18:25 106K 
 BRD-2-190 Confident..>2014-05-23 18:25 98K 
 BRD-2-200 Personal ..>2014-05-23 18:25 73K 
 BRD-2-220 Reimburse..>2014-05-23 18:25 76K 
 BRD-2-230 Inappropr..>2014-05-23 18:25 100K 
 BRD-2-240 Volunteer..>2014-05-23 18:25 192K 
 BRD-2-250 Volunteer..>2014-05-23 18:25 108K 
 BRD-2-260 Letters o..>2014-05-23 18:25 73K 
 BRD-2-270 Board Memb..>2014-05-23 18:25 35K 
 BRD-3-10 Committees ..>2014-05-23 18:26 85K 
 BRD-3-20 Executive ..>2014-05-23 18:26 77K 
 BRD-3-40 Policy, Pr..>2014-05-23 18:26 77K 
 BRD-3-50 Communicat..>2014-05-23 18:26 83K 
 BRD-3-60 Nomination..>2014-05-23 18:26 112K 
 BRD-3-70 Ad Hoc Fun..>2014-05-23 18:26 64K 
 BRD-3-110 CQI Commi..>2014-05-23 18:26 99K 
 BRD-3-120 Strategic..>2014-05-23 18:26 99K 
 BRD-4-10 Signing Au..>2014-05-23 18:27 73K 
 BRD-4-20 Audits.doc 2014-05-23 18:27 84K 
 BRD-4-30 Rental Con..>2014-05-23 18:27 76K 
 BRD-4-40 Insurance.doc2014-05-23 18:27 76K 
 BRD-4-70 Fundraisin..>2014-05-23 18:27 76K 
 BRD-4-90 SaleDonati..>2014-05-23 18:27 79K 
 BRD-5-10 CQI System..>2014-05-23 18:29 99K 
 BRD-5-20 Program Ev..>2014-05-23 18:29 76K 
 BRD-5-30 Collection..>2014-05-23 18:29 75K 
 BRD-5-40 Developmen..>2014-05-23 18:29 76K 
 BRD-5-50 Policy Dev..>2014-05-23 18:29 76K 
 BRD 1-50 Organizatio..>2014-05-23 18:25 88K 
 Client Fees.doc 2014-05-23 19:02 96K 
 Client Monitoring.doc 2014-05-23 19:02 98K 
 Collection of Statis..>2014-05-23 19:02 98K 
 Dining Club Voluntee..>2014-05-23 19:02 97K 
 Eligibility Criteria..>2014-05-23 19:02 98K 
 Emergency Procedures..>2014-05-23 19:02 97K 
 Facility Requirement..>2014-05-23 19:02 98K 
 Geographic Catchment..>2014-05-23 19:02 95K 
 HR-1-10 HR Hiring P..>2014-05-23 18:30 87K 
 HR-1-20 HR Employme..>2014-05-23 18:30 74K 
 HR-1-30 HR New Emplo..>2014-05-23 18:30 76K 
 HR-1-40 Job Sharing,..>2014-05-23 18:30 79K 
 HR-1-50 Temporarily ..>2014-05-23 18:30 76K 
 HR-2-10 Hours of Wo..>2014-09-16 16:43 73K 
 HR-2-20 Vacation.doc 2015-03-23 16:59 81K 
 HR-2-30 Paid Holida..>2014-05-23 18:35 81K 
 HR-2-30 Paid Holiday..>2014-09-16 14:00 75K 
 HR-2-40 Equal Emplo..>2014-05-23 18:35 73K 
 HR-2-40 Equal Opport..>2014-09-16 14:01 68K 
 HR-2-50 Employee Ac..>2014-05-23 18:35 73K 
 HR-2-50 Employee Acc..>2014-09-16 14:04 68K 
 HR-2-60 Change in E..>2014-05-23 18:35 76K 
 HR-2-60 Change in Em..>2014-09-16 14:06 71K 
 HR-2-70 Classificati..>2014-09-16 14:10 74K 
 HR-2-70 Classificat..>2014-05-23 18:35 74K 
 HR-3-10 Workplace H..>2014-05-23 18:36 81K 
 HR-3-20 Conflict of..>2014-05-23 18:36 80K 
 HR-3-40 Substances ..>2014-05-23 18:36 75K 
 HR-3-50 Conflict Re..>2014-05-23 18:36 74K 
 HR-3-60 Disciplinar..>2014-05-23 18:36 82K 
 HR-3-70 Policy Awar..>2014-05-23 18:36 75K 
 HR-3-80 Confidentia..>2014-05-23 18:36 99K 
 HR-3-90 Code of Con..>2014-05-23 18:36 101K 
 HR-3-100 Spokespers..>2014-05-23 18:36 74K 
 HR-3-110 Name Tag Po..>2014-05-23 18:36 77K 
 HR-3-120 HCSS Staff ..>2014-05-23 18:36 76K 
 HR-3-130 Code of Co..>2015-02-12 11:30 224K 
 HR-4-10 Pay Days.doc 2014-05-23 18:37 73K 
 HR-4-20 General Com..>2014-05-23 18:37 72K 
 HR-4-30 OvertimeLie..>2015-03-23 14:16 78K 
 HR-4-40 Red-Circled..>2014-05-23 18:37 75K 
 HR-4-50 Garishees W..>2014-05-23 18:37 73K 
 HR-4-60 Credit and ..>2014-05-23 18:37 74K 
 HR-4-70 Performance..>2014-05-23 18:37 84K 
 HR-4-80 Internal Mov..>2014-05-23 18:37 70K 
 HR-4-90 Temp Assignm..>2014-05-23 18:37 76K 
 HR-5-10 Benefit Elig..>2014-05-23 18:38 87K 
 HR-5-20 Short Term ..>2014-05-23 18:38 78K 
 HR-5-30 Long-Term D..>2014-05-23 18:38 69K 
 HR-5-40 Group Life ..>2014-05-23 18:38 75K 
 HR-5-50 Ontario Hea..>2014-05-23 18:38 74K 
 HR-5-60 Extended He..>2014-05-23 18:38 75K 
 HR-5-70 Dental Insu..>2014-05-23 18:38 74K 
 HR-5-80 RRSP Progra..>2014-05-23 18:38 75K 
 HR-5-90 Tuition - R..>2014-05-23 18:38 81K 
 HR-5-100 Membership..>2014-05-23 18:38 74K 
 HR-5-110 Employee As..>2014-05-23 18:38 74K 
 HR-6-10 Personal Le..>2014-05-23 18:39 77K 
 HR-6-20 Personal Tim..>2015-03-23 14:42 74K 
 HR-6-30 Compensatio..>2014-05-23 18:39 76K 
 HR-6-40 Bereavement..>2015-03-23 14:36 71K 
 HR-6-50 Jury Duty o..>2014-05-23 18:39 74K 
 HR-6-80 Religious O..>2014-05-23 18:39 73K 
 HR-6-90 Canadian Ci..>2014-05-23 18:39 73K 
 HR-6-100 Cancelled S..>2014-12-08 13:36 72K 
 HR-7-10 Occupational..>2014-05-23 18:39 93K 
 HR-7-20 Reporting A..>2014-05-23 18:39 77K 
 HR-7-30 Aids and HI..>2014-05-23 18:39 74K 
 HR-7-40 Smoke-free ..>2014-05-23 18:39 73K 
 HR-7-50 HCSS Cell P..>2014-09-16 11:11 72K 
 HR-7-60 Standard Pre..>2014-05-23 18:39 87K 
 HR-7-70 Disposal of ..>2014-05-23 18:39 77K 
 HR-7-80 Travelling D..>2014-05-23 18:39 78K 
 HR-7-90 Staff & Volu..>2014-05-23 18:39 80K 
 HR-7-120 Safe Footwa..>2014-05-23 18:39 76K 
 HR-7-130 Roles And R..>2014-05-23 18:39 89K 
 HR-7-140 Roles and R..>2014-05-23 18:39 92K 
 HR-7-150 Workplace V..>2014-05-23 18:39 83K 
 HR-7-160 Workplace S..>2014-05-23 18:39 92K 
 HR-7-170 Scent Free ..>2014-05-23 18:39 75K 
 HR-7-180 Needle Sti..>2014-12-08 15:33 71K 
 HR-8-10 Travel & Me..>2014-05-23 18:55 88K 
 HR-8-20 Travel Time..>2014-05-23 18:55 96K 
 HR-8-30 Vehicle All..>2014-05-23 18:55 80K 
 HR-8-40 Staff Trans..>2014-05-23 18:55 74K 
 HR-8-50 Travelling D..>2014-05-23 18:55 78K 
 HR-9-10 Recognition ..>2014-05-23 18:55 77K 
 HR-10-10 Layoff and..>2014-05-23 18:34 80K 
 HR-10-20 Resignatio..>2014-05-23 18:34 73K 
 HR-10-30 Retirement..>2014-05-23 18:34 73K 
 HR-10-40 Terminatio..>2014-05-23 18:34 74K 
 HR-10-50 References..>2014-05-23 18:34 75K 
 HR-10-60 Confidenti..>2014-05-23 18:34 75K 
 HR-10 -70 Bumping Ri..>2014-05-23 18:34 72K 
 HR-Stat Draft 0912.doc 2014-05-23 18:35 76K 
 Meal Requirements.doc 2014-05-23 19:02 96K 
 Menu Criteria.doc 2014-05-23 19:02 97K 
 PM-1-10 Collection ..>2014-05-23 18:56 101K 
 PM-1-20 Access & St..>2014-05-23 18:56 100K 
 PM-1-30 Client Cons..>2014-05-23 18:56 43K 
 PM-1-40 Record Mana..>2014-05-23 18:56 70K 
 PM-1-50 Access & St..>2014-05-23 18:56 77K 
 PM-1-60 Record Rete..>2014-05-23 18:56 90K 
 PM-1-70 Record Disp..>2014-05-23 18:56 167K 
 PM-1-80 Forms Manag..>2014-05-23 18:56 79K 
 PM-1-90 Client Requ..>2014-05-23 18:56 74K 
 PM-1-100 Lost or St..>2014-05-23 18:56 97K 
 PM-2-10 Client Righ..>2014-05-23 18:57 35K 
 PM-2-20 Intake.doc 2014-05-23 18:57 77K 
 PM-2-30 Initiating ..>2014-05-23 18:57 70K 
 PM-2-40 Assessment ..>2014-05-23 18:57 75K 
 PM-2-70 Admission.doc 2014-05-23 18:57 24K 
 PM-2-80 Waiting List..>2014-05-23 18:57 23K 
 PM-2-90 Waiting Lis..>2014-05-23 18:57 75K 
 PM-2-100 Reassessmen..>2014-05-23 18:57 86K 
 PM-2-110 Clients On ..>2014-05-23 18:57 38K 
 PM-2-120 Client Dis..>2014-09-16 11:59 95K 
 PM-2-130 Ineligible..>2014-05-23 18:57 34K 
 PM-2-140 Appeals Pr..>2014-05-23 18:57 69K 
 PM-2-150 Cancellati..>2014-05-23 18:57 33K 
 PM-2-170 Suspected ..>2014-05-23 18:57 98K 
 PM-2-180 Standard P..>2014-05-23 18:57 87K 
 PM-2-200 Regular Rec..>2014-05-23 18:57 85K 
 PM-2-210 Late Cancel..>2014-11-05 14:53 33K 
 PM-2-220 Responding ..>2014-05-23 18:57 76K 
 PM-2-230 Management ..>2014-05-23 18:57 31K 
 PM-3-10 DA Service ..>2014-05-23 18:58 79K 
 PM-3-15 ADP Client F..>2014-11-06 15:30 70K 
 PM-3-20 DA Eligibil..>2014-05-23 18:58 100K 
 PM-3-30 DA Collecti..>2014-05-23 18:58 100K 
 PM-3-40 Day Away Vo..>2014-05-23 18:58 78K 
 PM-3-50 DA Fundamen..>2014-05-23 18:58 103K 
 PM-3-60 DA Exercise..>2014-05-23 18:58 100K 
 PM-3-70 DA Meals.doc 2014-05-23 18:58 101K 
 PM-3-80 Outings.doc 2014-05-23 18:58 98K 
 PM-3-85 DA Bathing.doc2014-05-23 18:58 98K 
 PM-3-90 DA Transpor..>2014-05-23 18:58 81K 
 PM-3-95 DA Foot Car..>2014-05-23 18:58 98K 
 PM-3-100 Appendix 1 ..>2014-05-23 18:58 49K 
 PM-3-100 Client Asse..>2014-05-23 18:58 80K 
 PM-3-110 Administrat..>2014-05-23 18:58 78K 
 PM-3-115 DA Safe Fo..>2014-05-23 18:58 100K 
 PM-3-120 DA Infecti..>2014-05-23 18:58 85K 
 PM-3-130 DA Team Me..>2014-05-23 18:58 148K 
 PM-3-140 Documentati..>2014-05-23 18:58 111K 
 PM-3-150 DA Volunte..>2014-05-23 18:58 99K 
 PM-3-160 DA Support..>2014-05-23 18:58 102K 
 PM-3-180 DA Medical..>2014-07-24 11:52 75K 
 PM-3-190 Plan of Tre..>2014-07-24 11:59 74K 
 PM-3-200 DA Fire.doc 2014-05-23 18:58 83K 
 PM-3-210 DA Wanderi..>2014-05-23 18:58 86K 
 PM-3-220 DA Aggress..>2014-05-23 18:58 79K 
 PM-3-230 Restriction..>2014-05-23 18:58 99K 
 PM-3-240 Visiting Pe..>2014-05-23 18:58 77K 
 PM-3-250 Controlled ..>2014-09-16 14:47 74K 
 PM-3-260 Client Lift..>2014-05-23 18:58 91K 
 PM-4-10 MOW Service..>2014-05-23 18:59 76K 
 PM-4-20 MOW Eligibi..>2014-05-23 18:59 76K 
 PM-4-30 CDC Collecti..>2014-05-23 18:59 77K 
 PM-4-40 MOW Volunte..>2014-05-23 18:59 79K 
 PM-4-42 MOW Group C..>2014-05-23 18:59 80K 
 PM-4-45 MOW Contact..>2014-05-23 18:59 75K 
 PM-4-50 MOW Orderi..>2014-05-23 18:59 76K 
 PM-4-60 MOW Menu Cr..>2014-05-23 18:59 101K 
 PM-4-70 MOW Meal Pr..>2014-05-23 18:59 75K 
 PM-4-80 MOW Prepara..>2014-05-23 18:59 75K 
 PM-4-90 MOW Food Co..>2014-05-23 18:59 75K 
 PM-4-100 MOW Delive..>2014-05-23 18:59 77K 
 PM-4-110 MOW Potent..>2014-05-23 18:59 77K 
 PM-4-120 MOW Qualit..>2014-05-23 18:59 74K 
 PM-4-130 MOW Progra..>2014-05-23 18:59 75K 
 PM-4-210 CDC Servic..>2014-05-23 18:59 96K 
 PM-4-220 CDC Eligib..>2014-05-23 18:59 99K 
 PM-4-230 CDC Geogra..>2014-05-23 18:59 95K 
 PM-4-240 CDC Client..>2014-05-23 18:59 97K 
 PM-4-250 CDC Transp..>2014-05-23 18:59 98K 
 PM-4-260 CDC Social..>2014-05-23 18:59 95K 
 PM-4-280 CDC Menu C..>2014-05-23 18:59 97K 
 PM-4-290 CDC Meal Pr..>2014-05-23 18:59 97K 
 PM-4-300 CDC Safe F..>2014-05-23 18:59 99K 
 PM-4-310 CDC Emerge..>2014-05-23 18:59 97K 
 PM-4-320 CDC Client..>2014-05-23 18:59 98K 
 PM-4-330 CDC Collec..>2014-05-23 18:59 98K 
 PM-4-340 CDC Paymen..>2014-05-23 18:59 95K 
 PM-4-350 CDC Promot..>2014-05-23 18:59 38K 
 PM-4-360 CDC Facili..>2014-05-23 18:59 98K 
 PM-4-370 CDC Qualit..>2014-05-23 18:59 35K 
 PM-4-380 CDC Progra..>2014-05-23 18:59 96K 
 PM-4-390 CDC Volun..>2014-05-23 18:59 99K 
 PM-5-10 MOVIN'GB Tra..>2014-05-23 19:00 99K 
 PM-5-30 TR Collecti..>2014-05-23 19:00 82K 
 PM-5-40 TR Voluntee..>2014-05-23 19:00 87K 
 PM-5-50 TR Voluntee..>2014-05-23 19:00 74K 
 PM-5-70 MOVIN'GB Tra..>2014-05-23 19:00 71K 
 PM-5-80 MOVIN'GB Tr..>2014-05-23 19:00 71K 
 PM-5-90 TR Long Dis..>2014-05-23 19:00 97K 
 PM-5-100 MOVIN'GB Tr..>2014-09-26 11:06 75K 
 PM-5-120 Booking Dri..>2014-05-23 19:00 83K 
 PM-5-130 TR One Way..>2014-05-23 19:00 82K 
 PM-5-140 MOVIN'GB T..>2014-09-16 12:12 70K 
 PM-5-150 TR Driver ..>2014-05-23 19:00 79K 
 PM-5-160 TR Overnig..>2014-05-23 19:00 69K 
 PM-5-170 TR Emergen..>2014-05-23 19:00 76K 
 PM-5-180 MOVIN'GB Tr..>2014-05-23 19:00 70K 
 PM-5-190 TR Clients..>2014-05-23 19:00 76K 
 PM-5-200 TR Seat Be..>2014-05-23 19:00 95K 
 PM-5-220 Flat Rate B..>2014-05-23 19:00 92K 
 PM-5-240 MOVIN'GB Tr..>2014-09-16 11:18 73K 
 PM-5-260 MOVIN' GB ..>2014-05-23 19:00 71K 
 PM-5-280 MOVIN'GB Tr..>2014-05-23 19:00 96K 
 PM-6-10 FV Service ..>2014-05-23 19:01 75K 
 PM-6-20 FV Eligibil..>2014-05-23 19:01 74K 
 PM-6-30 FV Collecti..>2014-05-23 19:01 69K 
 PM-6-40 FV Voluntee..>2014-05-23 19:01 81K 
 PM-6-50 FV Voluntee..>2014-05-23 19:01 77K 
 PM-6-60 FV Client - ..>2014-05-23 19:01 76K 
 PM-6-70 FV Monitori..>2014-05-23 19:01 76K 
 PM-6-80 FV Terminat..>2014-05-23 19:01 75K 
 PM-6-90 FV Emergemc..>2014-05-23 19:01 78K 
 PM-6-100 FV Volunte..>2014-05-23 19:01 75K 
 PM-8-10 TEL Service..>2014-05-23 19:01 100K 
 PM-8-20 TEL Eligibi..>2014-05-23 19:01 33K 
 PM-8-30 TEL Collect..>2014-05-23 19:01 33K 
 PM-8-40 TEL Telepho..>2014-05-23 19:01 100K 
 PM-8-50 TEL Potenti..>2014-05-23 19:01 34K 
 PM-9-10 HSKG Servic..>2014-05-23 19:05 82K 
 PM-9-20 HSKG Eligib..>2014-05-23 19:05 76K 
 PM-9-50 HSKG Medica..>2014-05-23 19:05 76K 
 PM-9-50 Transport to..>2014-05-23 19:02 96K 
 PM-9-60 HSKG Client..>2014-05-23 19:05 77K 
 PM-9-80 HSKG Docume..>2014-05-23 19:05 112K 
 PM-9-90 Guidelines f..>2014-05-23 19:05 77K 
 PM 2-80 Waiting List..>2014-05-23 18:57 41K 
 Payment to the Meal ..>2014-05-23 19:02 95K 
 Pm-4-270 CDC Recrea..>2014-05-23 18:59 95K 
 Pm-9-70 HSKG Formal..>2014-05-23 19:05 85K 
 Program Expansion.doc 2014-05-23 19:02 96K 
 Promotion of Dining ..>2014-05-23 19:02 35K 
 Quality Assurance.doc 2014-05-23 19:02 33K 
 Recreational Activit..>2014-05-23 19:02 96K 
 Safe Food Handling.doc 2014-05-23 19:02 97K 
 Service Description.doc2014-05-23 19:02 96K 
 Social Environment.doc 2014-05-23 19:02 96K 
 TomsTest.txt 2015-04-14 09:38 4  
 VM-1-10 Volunteer R..>2014-05-23 19:06 103K 
 VM-2-10 VM Recruitm..>2014-05-23 19:07 77K 
 VM-2-20 VM Work, Sc..>2014-05-23 19:07 77K 
 VM-2-30 VM Applicat..>2014-05-23 19:07 81K 
 VM-2-40 VM Voluntee..>2014-05-23 19:07 76K 
 VM-2-50 VM Unsucces..>2014-05-23 19:07 76K 
 VM-2-60 VM Police C..>2014-05-23 19:07 42K 
 VM-2-70 VM Insuranc..>2014-05-23 19:07 75K 
 VM-3-10 VM Orientat..>2014-05-23 19:07 99K 
 VM-3-20 VM Training..>2014-05-23 19:07 80K 
 VM-3-30 VM Supervis..>2014-05-23 19:07 76K 
 VM-3-40 VM Recognit..>2014-05-23 19:07 75K 
 VM-3-50 VM Retentio..>2014-05-23 19:07 75K 
 VM-3-60 Volunteer Sa..>2014-05-23 19:07 98K 
 VM-4-10 VM Code of ..>2014-05-23 19:09 74K 
 VM-4-20 VM Confiden..>2014-05-23 19:09 97K 
 VM-4-30 VM Personal..>2014-05-23 19:09 74K 
 VM-4-40 VM Conflict..>2014-05-23 19:09 73K 
 VM-4-50 VM Gifts fr..>2014-05-23 19:09 74K 
 VM-4-60 VM Legal, F..>2014-05-23 19:09 79K 
 VM-4-70 VM Right of..>2014-05-23 19:09 75K 
 VM-4-80 VM Reimburs..>2014-05-23 19:09 84K 
 VM-4-90 VM Smoking.doc2014-05-23 19:09 75K 
 VM-4-100 VM Inapprop..>2014-05-23 19:09 100K 
 VM-4-110 VM Volunte..>2014-05-23 19:09 75K 
 VM-4-120 Volunteer p..>2014-05-23 19:09 100K 
 VM-5-10 VM Absence ..>2014-05-23 19:10 74K 
 VM-5-20 VM Voluntee..>2014-05-23 19:10 192K 
 VM-5-30 VM Volunteer..>2014-05-23 19:10 106K 
 VM-5-40 VM Letters o..>2014-05-23 19:10 74K 
 VM-6-10 VM Client N..>2014-05-23 19:12 79K 
 VM-6-20 VM Client F..>2014-05-23 19:12 76K 
 VM-6-30 VM Motor Ve..>2014-05-23 19:12 76K 
 VM-6-40 VM Unusual ..>2014-05-23 19:12 76K 
 medical procedures.xls 2014-05-23 18:58 19K